Location: Dimsdale
(55.1333°N, 118.9833°W)
Time: 23:10:55
(UTC+00:00)

MOZHAYETS 4 - Visible Passes

Search period start: 06 December 2023 00:00
Search period end: 16 December 2023 00:00
Orbit: 656 x 672 km, 98.3° (Epoch: 06 December)

Date Brightness Start Highest point End Pass type
(mag) Time Alt. Az. Time Alt. Az. Time Alt. Az.
06 Dec 8.2 00:33:50 10° N 00:38:25 65° WNW 00:42:59 10° SSW visible
06 Dec 10.4 02:12:09 10° NNW 02:14:35 14° NW 02:17:02 10° W visible
07 Dec 9.1 01:04:53 10° N 01:09:09 38° WNW 01:13:24 10° SW visible
08 Dec 9.8 01:36:05 10° N 01:39:45 24° WNW 01:43:25 10° WSW visible
09 Dec 8.0 00:29:24 10° NNE 00:34:01 71° WNW 00:38:36 10° SSW visible
09 Dec 10.3 02:07:34 10° NNW 02:10:15 15° NW 02:12:54 10° W visible
10 Dec 8.9 01:00:25 10° N 01:04:45 41° WNW 01:09:04 10° SW visible
11 Dec 9.7 01:31:35 10° N 01:35:22 25° WNW 01:39:08 10° WSW visible
12 Dec 7.9 00:24:57 10° NNE 00:29:35 77° WNW 00:34:11 10° SSW visible
12 Dec 10.3 02:03:00 10° NNW 02:05:51 16° NW 02:08:43 10° W visible
13 Dec 8.8 00:55:55 10° N 01:00:19 45° WNW 01:04:42 10° SW visible
13 Dec 10.6 02:35:15 10° NNW 02:36:13 11° NW 02:37:12 10° WNW visible
14 Dec 9.6 01:27:04 10° N 01:30:57 27° WNW 01:34:49 10° WSW visible
15 Dec 7.8 00:20:28 10° NNE 00:25:07 84° WNW 00:29:43 10° SSW visible
15 Dec 10.2 01:58:24 10° N 02:01:27 18° NW 02:04:28 10° W visible
